Home > Weather > Koblenz > Past weeks

Flag for Germany Past Weather in Koblenz, Rhineland-Palatinate, Germany — Yesterday and Last 2 Weeks

Now
64 °F

Broken clouds.


Feels Like: 64 °F
Forecast: 58 / 73 °F
Wind: 8 mph from West

Location: Buechel

Current Time: Jun 28, 2016 at 3:19:17 PM

Latest Report: Jun 28, 2016 at 2:20 PM


Visibility: N/A

Pressure: 30.04 "Hg

Humidity: 64%

Dew Point: 52 °F

Location of KoblenzLocation

Past Weather in Koblenz — Graph

°F

Koblenz Temperature Yesterday

Maximum temperature yesterday: 59 °F (at 4:20 PM)
Minimum temperature yesterday: 48 °F (at 5:53 AM)
Average temperature yesterday: 54 °F

High & Low Weather Summary for the Past Weeks

 TemperatureHumidityPressure
High86 °F (Jun 23, 3:20 PM)100% (Jun 13, 4:03 PM)30.27 "Hg (Jun 13, 4:03 PM)
Low46 °F (Jun 16, 5:20 AM)49% (Jun 23, 3:20 PM)29.50 "Hg (Jun 14, 7:20 PM)
Average58 °F87%29.96 "Hg
* Reported Jun 13 1:20 PM — Jun 28 1:20 PM, Koblenz, Weather by CustomWeather, © 2016

Note: Actual official high and low records may vary slightly from our data, if they occured in-between our weather recording intervals... More about our weather records

Advertising

Koblenz Weather History for the Previous 24 Hours

Scroll right to see more
 ConditionsComfort  
Time TempWeatherWind HumidityBarometerVisibility
1:20 PM
Tue, Jun 28
63 °FBroken clouds.9 mph68%30.07 "HgN/A
12:20 PM61 °FBroken clouds.8 mph72%30.07 "HgN/A
11:20 AM61 °FBroken clouds.9 mph83%30.09 "HgN/A
10:20 AM59 °FPartly sunny.5 mph94%30.09 "HgN/A
9:54 AM57 °FPartly sunny.3 mph100%30.09 "Hg6 mi
8:20 AM55 °FFog.5 mph100%30.09 "Hg0 mi
7:20 AM54 °FFog.2 mph100%30.09 "Hg0 mi
6:20 AM52 °FFog.1 mph100%30.09 "Hg0 mi
5:20 AM52 °FFog.3 mph100%30.09 "Hg1 mi
4:20 AM54 °FCool.6 mph100%30.09 "Hg0 mi
3:20 AM54 °FCool.5 mph100%30.12 "Hg0 mi
2:20 AM54 °FCool.5 mph100%30.12 "Hg1 mi
1:20 AM55 °FCool.6 mph100%30.12 "Hg1 mi
12:20 AM57 °FCool.3 mph94%30.12 "HgN/A
11:20 PM
Mon, Jun 27
57 °FCool.6 mph100%30.12 "HgN/A
10:20 PM57 °FCool.8 mph100%30.12 "Hg4 mi
10:02 PM57 °FFog.9 mph100%30.12 "Hg1 mi
9:20 PM57 °FSprinkles. Fog.8 mph100%30.09 "Hg2 mi
8:20 PM59 °FBroken clouds.8 mph94%30.12 "Hg5 mi
8:02 PM59 °FSprinkles. Fog.9 mph94%30.09 "Hg2 mi
7:20 PM59 °FBroken clouds.9 mph94%30.09 "HgN/A
6:20 PM59 °FBroken clouds.13 mph88%30.09 "HgN/A
5:20 PM59 °FPartly sunny.12 mph88%30.12 "HgN/A
4:20 PM59 °FPartly sunny.12 mph88%30.12 "HgN/A
3:20 PM57 °FPartly sunny.15 mph88%30.12 "HgN/A
Weather by CustomWeather, © 2016

See weather overviewHow to use our weather pages